Regional Weather Roundup
Issued by NWS

Home | Current Version | Previous Version | Text Only | Print | Product List | Glossary Off
Versions: 1 2 3 4 5 6 7 8 9 10 11 12 13 14 15 16 17 18 19 20 21 22 23 24 25 26 27 28 29 30 31 32 33 34 35 36 37 38 39 40 41 42 43 44 45 46 47 48 49 50

000
ASUS44 KMEG 250200
RWRTN
TENNESSEE HOURLY STATE WEATHER ROUNDUP
NATIONAL WEATHER SERVICE MEMPHIS TN
900 PM CDT SUN MAY 24 2015

TNZ002-004-019-021-049-052-054-088>092-250300-
WEST TENNESSEE

CITY           SKY/WX    TMP DP  RH WIND       PRES   REMARKS
MEMPHIS INTL   CLOUDY    71  67  87 S14       30.01S
NWS MEMPHIS      N/A     57 N/A N/A MISG        N/A
JACKSON        CLOUDY    70  66  87 S8        30.04S
DYERSBURG      CLOUDY    73  54  49 S10G23    30.02R
PARIS          CLEAR     70  68  94 SE9       30.05R
LEXINGTON      PTCLDY    68  64  88 S5        30.07S
$$

TNZ008-025-027-028-033-062-065-066-250300-
NORTH MIDDLE TENNESSEE

CITY           SKY/WX    TMP DP  RH WIND       PRES   REMARKS
NASHVILLE      CLOUDY    78  64  61 S12       30.12R
CLARKSVILLE    MOCLDY    78  65  63 S14G24    30.06S
COOKEVILLE     CLEAR     73  61  64 S5        30.17R
CROSSVILLE     CLEAR     71  55  56 S6        30.23S
$$

TNZ061-075-076-078-094-096-097-250300-
SOUTH MIDDLE TENNESSEE

CITY           SKY/WX    TMP DP  RH WIND       PRES   REMARKS
FAYETTEVILLE   CLEAR    N/A N/A N/A MISG      30.17S
TULLAHOMA      CLOUDY    72  63  73 S5        30.20R
WINCHESTER     CLOUDY    75  61  60 S8        30.18R
MCMINNVILLE    CLEAR     75  61  60 SE6       30.18R
COLUMBIA       CLEAR     73  68  83 S8        30.11S
SHELBYVILLE    CLOUDY    72  70  94 S9        30.18R
$$

TNZ017-018-042-046-047-250300-
NORTHEAST TENNESSEE

CITY           SKY/WX    TMP DP  RH WIND       PRES   REMARKS
TRI CITIES     PTCLDY    72  49  44 SE3       30.27R
ELIZABETHTON   CLEAR     64  50  59 CALM      30.30R
$$

TNZ012-013-036-069-073-074-250300-
CENTRAL EAST TENNESSEE

CITY           SKY/WX    TMP DP  RH WIND       PRES   REMARKS
KNOXVILLE      PTCLDY    74  53  48 S5        30.21R
OAK RIDGE      CLEAR     76  54  46 SW3       30.23R
GATLINBURG     CLEAR     70  55  60 CALM      30.22R
$$

TNZ083-085-099-250300-
SOUTHEAST TENNESSEE

CITY           SKY/WX    TMP DP  RH WIND       PRES   REMARKS
CHATTANOOGA    PTCLDY    76  58  53 SE7       30.20R
$$

SKY/WX REPORTED AS FAIR MEANS FEW OR NO CLOUDS BELOW
12 THOUSAND FEET.



USA.gov is the U.S. government's official web portal to all federal, state and local government web resources and services.